World > North America > United States > Michigan > Twining  

Twining, MI Hourly Weather Updates

Feedback E-mail the Weather

Quick Clicks

Twining, MI Weather Maps

°F °C°F °C
Twining Weather Map
UTC Time: 6/14/2024, 05:06
Your Time:

Twining, MI Regional Weather

Expires:202406140600;;982843
ASUS43 KDTX 140501
RWRMI 
MICHIGAN HOURLY REGIONAL WEATHER ROUNDUP
NATIONAL WEATHER SERVICE DETROIT/PONTIAC MI
100 AM EDT FRI JUN 14 2024

NOTE: "FAIR" INDICATES FEW OR NO CLOUDS BELOW 12,000 FEET WITH NO
SIGNIFICANT WEATHER AND/OR OBSTRUCTION TO VISIBILITY.


MIZ016>042-140600-
NORTHERN LOWER MICHIGAN
  
CITY           SKY/WX    TMP DP  RH WIND       PRES   REMARKS
ALPENA         CLEAR     62  52  69 NW5       29.87R TC  17           
BEAVER ISLAND  MOCLDY    53  51  92 CALM      29.89R TC  12           
BELLAIRE       MOCLDY    57  53  85 CALM      29.90S TC  14           
CADILLAC       PTCLDY    59  55  88 NE3       29.92S TC  15           
CHARLEVOIX     CLOUDY    61  49  65 W3        29.89S TC  16           
CHEBOYGAN      PTCLDY    55  52  88 CALM      29.87S TC  13           
FRANKFORT      PTCLDY    63  56  78 CALM      29.90S TC  17           
GAYLORD        CLEAR     61  49  64 CALM      29.90S TC  16           
GRAYLING       CLEAR     56  51  82 CALM      29.89S TC  14           
HARBOR SPRINGS PTCLDY    57  55  90 CALM      29.88R TC  14           
HOUGHTON LAKE  CLEAR     63  49  60 N8G17     29.92R TC  17           
MANISTEE       CLEAR     61  58  90 E6        29.90R TC  16           
OSCODA         CLEAR     61  53  73 W5        29.87R TC  16           
PELLSTON       PTCLDY    54  49  83 W5        29.88R TC  12           
ROGERS CITY    CLEAR     57  51  82 NW3       29.88R TC  14           
TRAVERSE CITY  CLEAR     60  57  89 CALM      29.89R TC  16           
$$

SKY/WX - Weather  TMP - Temperature  DP - Dew Point  RH - Humidity
WIND - Wind Direction/Speed PRES - Barometric Pressure VSB - Visibility
WCI - Wind Chill Index E13G22 Wind - East Wind 13 mph/Gusts of 22 mph

Trending Headlines

Trending Entertainment Headlines

Twining Radar Loop

Use the map search tool if you want to place a location marker on the radar map...

Twining Quick Facts

National Two Day Weather Forecast


E-mail the Twining Weather Forecast

Voice your opinion or tell us about page issues...